Temperature
26 23 22 22 23 24 25 25 25 27 28 28 27 26 25 25 25 24 23 22 22 22 22 22 21 21 20 20 19 19 19 19 18 18 18 18 18 18 18 18 18 18 18 18
23 22 23 24 25 26 25 25 26 27 28 28 26 26 25 25 24 24 23 22 21 21 21 21 21 20 20 20 19 19 19 19 19 19 18 18 18 18 18 18 18 18 18 18
22 23 26 26 26 26 26 26 26 27 27 26 26 24 24 24 24 23 23 22 22 21 21 20 20 20 20 19 19 19 19 19 18 18 18 18 18 18 18 18 18 17 18 18
23 25 26 26 26 26 25 27 28 28 26 24 25 23 23 23 22 23 22 22 21 21 21 21 20 20 20 19 19 19 19 18 18 18 18 18 18 18 18 18 18 17 17 17
23 25 25 26 26 27 26 28 28 27 25 23 23 23 22 22 22 22 22 22 22 21 21 21 20 20 20 19 19 19 19 18 18 18 18 18 18 18 18 18 17 17 17 17
24 26 26 26 27 28 28 27 25 22 21 22 22 22 22 21 22 22 22 22 22 21 21 21 20 20 20 19 19 19 19 18 18 18 18 18 18 18 18 17 17 17 17 17
24 25 26 27 27 27 27 23 21 22 20 21 22 22 21 22 23 23 22 22 21 21 21 20 20 20 19 19 19 19 18 18 18 18 18 18 18 18 18 18 18 18 17 17
22 23 25 27 26 25 25 22 21 22 21 21 22 22 22 23 24 24 23 22 21 21 21 21 20 20 20 19 19 19 18 18 18 18 18 18 18 18 18 18 18 18 18 18
22 22 26 27 28 26 26 23 21 20 21 21 21 22 23 23 23 22 22 21 21 21 21 21 21 20 20 19 19 19 18 18 18 18 18 18 18 18 18 17 17 17 17 17
22 23 24 27 28 27 25 24 20 20 21 21 22 22 21 22 21 21 21 21 21 21 21 21 21 20 20 19 19 19 18 18 18 18 18 18 18 18 17 17 17 17 17 17
22 22 23 25 26 26 26 25 21 19 19 20 21 21 22 21 21 21 21 21 21 21 21 21 21 20 20 19 19 19 18 18 18 18 18 18 17 17 17 17 17 17 17 17
22 20 21 23 25 26 25 24 21 21 21 19 20 21 23 22 21 21 21 21 21 21 21 21 21 20 20 19 19 19 18 18 18 18 18 17 17 17 17 17 17 17 17 17
23 20 21 22 23 25 25 25 22 20 19 19 20 21 22 21 21 21 21 21 21 21 21 21 21 20 20 19 19 19 18 18 18 18 18 17 17 17 17 17 17 17 17 17
23 20 21 22 22 24 25 25 24 21 20 20 21 21 21 20 20 21 21 21 21 21 21 21 20 20 20 19 19 19 18 18 18 18 17 17 17 17 17 17 17 17 17 16
22 21 22 22 24 25 25 26 25 23 21 21 21 21 21 20 20 21 21 21 21 21 21 21 21 20 20 19 19 19 18 18 18 18 17 17 17 17 17 17 16 16 16 16
19 21 22 23 24 25 25 25 26 25 24 23 22 21 20 21 21 21 21 21 20 20 20 21 20 20 20 19 19 19 18 18 18 17 17 17 17 17 16 16 16 16 16 16
18 20 20 21 23 24 23 24 24 24 23 23 22 21 20 20 20 20 21 21 21 21 20 20 20 20 20 20 19 19 18 18 17 17 17 17 16 16 16 16 16 16 15 15
19 18 17 19 22 22 21 22 24 23 23 22 21 20 20 20 20 21 21 21 21 21 20 20 20 20 19 19 19 18 18 18 17 17 16 16 16 16 16 15 15 15 15 15
18 18 18 17 19 21 22 23 23 22 21 21 21 20 20 20 19 19 20 21 21 20 21 21 20 20 19 19 18 18 18 17 17 16 16 16 16 16 15 15 15 15 15 14
18 17 17 18 20 20 20 22 23 22 20 20 20 20 19 20 18 18 19 20 20 20 20 20 19 19 19 18 18 18 17 17 16 16 16 16 15 15 15 15 15 14 14 14
18 17 18 18 19 19 20 21 22 20 19 20 20 20 20 19 19 19 19 20 20 20 20 19 19 18 18 18 17 17 17 16 16 16 16 15 15 15 15 14 14 14 14 13
17 16 17 16 18 18 19 20 19 18 19 20 20 20 19 19 19 18 19 19 19 19 19 19 18 18 17 17 17 17 16 16 15 15 15 15 14 14 14 14 13 13 13 13
16 15 15 16 16 17 18 18 19 19 19 19 19 19 19 18 18 18 18 18 18 18 18 18 18 17 16 16 16 16 16 15 15 15 14 14 14 14 13 13 13 12 12 12
15 15 15 15 16 16 17 18 18 19 19 19 19 19 19 18 17 17 17 17 17 17 17 17 17 16 16 15 15 15 15 15 14 14 14 13 13 13 12 12 12 12 11 11
15 15 14 14 15 16 16 17 17 18 18 18 18 18 18 18 17 16 16 16 16 16 16 16 16 16 15 15 14 14 14 14 14 14 13 13 12 12 12 11 11 11 11 11
13 14 14 14 14 14 15 16 17 17 17 17 17 17 17 17 16 16 15 15 15 15 15 15 15 15 14 14 14 14 13 13 13 13 12 12 12 11 11 11 10 10 10 10
Wind_Speed
3 2 6 9 9 9 7 10 12 11 6 0 3 4 6 8 11 12 11 11 10 9 8 10 11 12 12 11 11 11 11 10 9 6 5 5 5 5 5 6 9 11 11 10
1 8 13 9 9 9 11 11 10 8 6 1 3 2 3 6 10 12 14 14 12 9 9 9 10 10 11 11 11 10 10 11 9 7 5 5 5 5 5 4 6 10 10 10
10 8 7 9 11 11 11 8 7 6 5 5 4 5 3 1 4 7 10 12 13 14 14 12 11 10 10 11 12 11 11 11 10 8 5 5 4 3 3 4 4 6 9 9
8 12 11 10 12 10 9 10 6 4 2 3 2 1 6 2 2 6 9 10 12 12 12 12 11 11 11 11 10 10 10 10 9 9 8 8 7 6 5 5 4 5 7 7
8 7 8 11 13 10 10 8 3 2 1 3 4 2 6 1 2 6 9 11 12 12 13 12 11 11 10 10 10 9 10 9 8 8 9 8 6 5 4 4 6 5 4 5
9 8 6 10 11 9 6 3 7 6 5 2 4 3 4 4 6 6 8 11 11 12 12 10 8 7 7 7 8 9 9 8 8 8 9 9 9 8 7 6 6 5 4 4
8 10 9 7 7 6 2 5 5 5 5 5 4 2 7 8 7 9 11 12 12 12 12 11 10 10 8 9 9 9 10 9 8 8 8 9 9 9 9 7 7 6 4 4
6 9 7 6 9 8 5 10 8 5 5 5 4 4 7 5 4 7 9 12 12 12 11 11 11 11 10 10 9 9 10 9 9 9 8 7 8 7 6 6 6 6 5 5
8 8 7 8 7 10 7 6 10 7 2 1 4 4 6 4 7 7 9 11 11 11 12 11 10 9 9 9 9 10 10 8 9 9 8 7 7 7 7 6 5 5 5 5
10 6 9 6 2 5 10 9 7 6 4 2 4 3 4 3 5 7 9 10 9 9 10 10 10 9 8 8 7 8 8 9 8 8 8 7 7 7 7 6 6 5 6 5
10 7 8 5 4 8 4 5 6 6 6 6 3 6 6 9 10 11 10 10 10 10 11 10 8 8 8 8 8 8 8 7 7 7 7 6 6 6 6 5 6 5 5 5
10 8 7 9 8 8 8 9 9 6 5 6 5 6 4 7 8 9 10 10 10 10 9 10 10 9 8 8 8 8 7 7 7 7 6 6 5 5 5 4 4 5 5 4
9 8 3 7 7 2 3 5 7 7 6 6 5 5 2 4 6 8 9 10 10 10 9 8 9 9 9 8 8 7 7 7 7 7 6 6 5 5 4 3 3 4 4 4
8 6 8 10 8 4 3 3 5 7 5 6 8 7 4 5 7 7 9 12 11 10 10 9 8 8 8 8 8 8 7 7 7 7 6 6 6 5 5 4 4 4 4 4
6 5 5 6 6 3 2 4 4 5 9 9 9 10 11 12 11 10 10 11 11 9 9 10 10 9 9 8 8 8 7 7 7 8 7 6 6 6 5 5 5 5 5 5
4 4 2 1 1 0 2 5 4 3 4 6 8 5 6 8 7 8 10 12 11 9 8 9 10 10 9 10 9 9 8 7 8 8 7 6 7 7 6 6 6 6 6 6
3 4 3 1 3 4 3 4 1 1 1 6 7 8 9 9 12 13 12 12 11 10 8 9 10 9 9 9 10 9 8 8 8 8 7 7 7 8 7 7 7 7 6 7
3 3 3 2 3 3 7 3 2 3 2 1 5 9 12 11 9 7 9 12 11 9 9 9 8 8 7 7 8 9 9 9 8 8 7 7 8 8 8 8 7 7 6 7
6 6 3 3 3 4 5 4 0 3 3 1 6 10 10 10 8 4 2 8 9 9 8 8 8 7 7 8 9 10 10 9 9 8 7 7 8 9 9 9 8 7 7 8
4 6 5 3 3 5 6 5 1 6 2 3 6 12 11 9 6 3 3 6 7 7 7 8 8 8 8 7 9 10 9 9 8 7 8 7 8 9 9 9 8 7 8 8
3 3 4 4 3 5 5 5 3 4 5 2 6 9 9 5 6 6 7 7 7 8 9 9 9 8 7 8 10 10 8 8 7 8 8 8 8 9 9 9 8 9 9 9
2 2 2 3 3 6 6 3 3 5 4 6 7 7 9 9 10 10 10 9 9 9 8 8 8 7 7 8 10 10 8 7 8 9 9 8 8 8 9 10 9 8 9 10
2 4 4 4 5 3 1 2 2 5 7 7 8 9 11 11 9 8 8 9 8 9 8 8 10 9 7 6 9 10 7 8 9 10 9 9 9 8 8 9 9 7 7 8
4 2 2 2 1 2 4 6 6 6 7 8 11 12 12 11 9 8 7 7 7 7 8 7 9 9 8 6 7 8 8 9 10 11 10 9 10 9 8 6 6 7 6 7
3 2 2 2 1 5 6 6 6 7 9 10 10 11 11 12 9 8 7 6 7 7 7 7 9 9 8 7 7 7 8 10 11 10 10 9 9 10 9 8 6 6 5 6
1 2 3 4 4 3 1 1 5 8 9 9 9 9 8 10 10 8 7 6 7 7 7 8 8 8 8 8 8 7 8 10 12 10 9 8 8 8 9 9 9 14 11 13
Wind_Direction
210 133 227 231 217 222 261 280 286 287 291 94 176 175 186 175 162 162 164 160 170 174 167 159 156 155 153 156 157 160 161 161 159 159 154 147 157 166 167 173 170 168 168 164
1 247 235 236 249 253 263 272 281 292 308 24 143 179 190 181 178 171 167 163 166 156 149 152 152 154 158 161 160 163 166 166 168 167 162 158 155 161 169 171 168 172 172 171
211 241 234 234 255 260 268 254 261 278 323 16 64 357 336 197 154 160 165 162 163 162 160 159 159 160 161 165 168 171 171 169 170 163 145 131 117 108 136 164 170 180 177 175
242 249 255 255 258 242 262 259 261 293 6 315 54 307 291 228 172 172 165 163 165 163 161 162 162 164 169 172 170 170 170 169 168 162 159 158 162 169 183 177 177 179 174 173
240 238 234 243 247 236 234 253 278 309 82 356 1 104 285 317 183 198 176 172 170 168 165 166 168 171 169 168 169 169 168 170 169 166 166 164 168 171 165 158 167 176 180 175
252 268 241 235 250 237 229 19 21 40 63 346 274 156 272 246 213 192 176 169 166 165 164 161 160 161 162 165 168 166 166 172 171 168 168 171 171 165 161 168 174 177 183 183
285 280 265 253 264 278 125 85 25 354 4 258 274 173 243 246 212 176 169 166 162 162 160 158 161 167 171 172 171 168 167 171 172 171 175 177 175 170 173 178 181 179 184 191
228 272 255 228 200 203 187 142 159 198 224 277 324 231 261 261 181 149 150 153 152 155 161 166 170 173 176 175 171 169 171 171 174 177 180 178 174 173 177 182 183 187 193 199
203 250 270 251 213 169 175 175 169 145 179 289 297 299 326 20 93 120 136 143 153 160 165 169 169 168 172 172 173 174 174 174 179 182 180 175 173 173 179 184 186 191 195 199
182 248 282 279 237 202 172 161 107 125 161 232 291 275 230 217 141 143 151 156 156 158 162 165 166 164 165 168 167 168 174 180 183 181 179 177 177 179 180 183 191 197 196 190
178 203 283 331 210 202 175 153 133 138 156 158 215 264 224 185 168 159 163 162 156 160 165 164 166 166 163 161 161 166 173 175 177 175 173 170 173 176 175 185 195 190 183 176
178 166 239 257 253 211 182 183 154 160 209 165 168 256 261 175 164 158 154 149 154 163 162 160 164 164 164 164 166 169 171 173 173 166 161 163 164 163 166 175 185 178 174 169
164 147 201 319 327 335 175 182 165 148 140 157 164 246 284 132 149 162 149 150 158 159 159 162 165 164 166 165 165 167 171 171 163 153 152 153 153 157 161 160 150 145 151 151
141 132 170 201 215 225 229 234 171 138 164 197 200 201 217 166 170 166 157 156 156 156 160 161 165 164 164 165 165 162 164 161 152 146 148 152 155 153 149 142 132 127 133 130
117 145 178 203 209 187 223 263 220 186 188 185 203 188 197 185 179 170 160 150 147 152 158 165 164 160 160 161 160 156 156 153 148 144 146 151 149 141 132 127 122 115 114 114
58 121 133 295 302 32 330 296 276 237 201 178 159 194 200 173 152 150 151 151 149 153 160 159 156 157 160 163 161 154 153 153 145 144 146 143 137 131 125 121 112 106 102 99
26 87 91 264 330 39 311 271 231 314 319 162 175 197 170 163 164 166 159 150 151 158 160 163 162 162 163 160 156 154 151 143 138 138 137 135 131 125 120 116 107 105 102 95
129 89 116 130 62 223 245 260 115 96 26 131 155 159 164 162 152 145 147 144 153 159 161 156 157 153 150 144 143 139 133 133 135 134 134 135 131 125 120 115 112 106 102 99
151 137 113 117 165 264 296 318 119 117 351 4 139 143 136 124 91 63 117 141 150 157 150 141 144 143 137 138 140 134 131 131 130 130 134 134 131 128 123 120 117 113 107 101
85 111 123 126 149 219 250 284 297 100 14 326 138 142 140 122 127 186 151 132 133 130 127 123 123 122 129 134 131 128 132 131 134 136 134 130 128 126 123 120 116 110 107 104
31 51 132 158 185 248 266 296 54 116 213 236 130 137 135 133 151 146 123 113 115 112 111 117 119 124 134 134 126 123 124 129 131 124 120 119 120 122 121 115 113 112 109 104
147 130 166 142 172 243 308 26 125 188 162 122 110 106 104 106 108 113 112 109 110 107 105 110 118 117 118 126 128 127 128 130 123 119 116 115 117 120 117 115 112 112 113 108
116 173 179 179 202 238 330 121 152 135 122 123 121 116 112 112 111 111 109 109 107 111 109 110 116 112 105 112 128 131 136 129 121 115 112 110 106 105 111 117 119 116 113 115
337 26 88 66 340 70 71 62 59 86 109 120 124 125 122 117 115 112 110 109 106 102 109 112 117 118 117 112 117 127 129 124 120 117 114 113 111 105 97 98 109 117 119 121
305 1 57 76 39 43 39 48 63 74 90 101 108 115 120 122 123 121 116 113 110 109 110 115 120 124 125 119 118 122 126 125 120 118 117 114 111 109 98 85 72 94 97 127
274 179 157 202 219 158 170 34 78 86 92 103 108 107 114 122 125 119 117 116 113 113 114 117 119 123 125 124 121 121 124 128 127 124 122 119 117 113 111 106 84 60 78 90
Height
1495 1501 1507 1503 1502 1504 1504 1506 1504 1493 1480 1482 1487 1489 1488 1487 1488 1490 1492 1495 1499 1502 1504 1506 1508 1509 1512 1514 1517 1519 1522 1526 1529 1533 1536 1539 1542 1545 1548 1551 1553 1555 1557 1560
1500 1503 1495 1494 1495 1498 1501 1504 1501 1490 1480 1484 1489 1490 1486 1486 1486 1487 1489 1492 1496 1500 1503 1505 1507 1509 1511 1513 1515 1518 1521 1524 1527 1531 1535 1538 1541 1544 1547 1550 1552 1554 1556 1558
1502 1494 1489 1492 1495 1498 1498 1500 1496 1492 1485 1486 1491 1499 1493 1488 1487 1488 1489 1491 1495 1497 1500 1503 1505 1507 1510 1512 1514 1517 1520 1523 1526 1530 1534 1537 1540 1543 1545 1547 1550 1552 1555 1557
1495 1487 1488 1491 1492 1492 1500 1486 1485 1486 1496 1506 1498 1519 1502 1493 1491 1489 1490 1492 1494 1497 1499 1501 1504 1506 1509 1511 1514 1517 1520 1522 1526 1529 1532 1535 1537 1540 1542 1545 1548 1550 1553 1555
1492 1483 1486 1489 1485 1483 1487 1478 1481 1485 1495 1507 1505 1515 1510 1496 1496 1492 1490 1491 1493 1496 1498 1500 1503 1506 1508 1511 1514 1516 1519 1522 1525 1527 1531 1534 1536 1538 1541 1543 1546 1548 1551 1553
1484 1478 1479 1479 1475 1475 1475 1480 1488 1497 1507 1523 1511 1515 1515 1502 1493 1490 1490 1490 1492 1495 1498 1501 1504 1507 1509 1511 1513 1515 1517 1520 1523 1526 1529 1531 1534 1536 1539 1541 1544 1546 1548 1551
1488 1479 1473 1473 1477 1474 1478 1501 1523 1525 1534 1529 1509 1511 1510 1487 1481 1483 1486 1489 1491 1494 1498 1501 1504 1506 1508 1510 1512 1514 1516 1518 1521 1524 1527 1530 1532 1534 1537 1539 1541 1543 1546 1548
1498 1495 1473 1468 1473 1480 1481 1497 1524 1535 1536 1527 1511 1512 1498 1480 1477 1480 1484 1489 1491 1494 1497 1500 1503 1505 1507 1509 1512 1513 1515 1517 1520 1522 1525 1528 1530 1533 1535 1537 1539 1541 1543 1546
1494 1492 1467 1463 1462 1469 1481 1491 1494 1515 1521 1527 1519 1505 1492 1481 1481 1484 1488 1491 1493 1495 1497 1499 1502 1505 1507 1509 1511 1512 1514 1516 1518 1520 1523 1525 1528 1530 1533 1535 1537 1539 1541 1544
1479 1487 1471 1461 1460 1462 1468 1477 1499 1514 1529 1534 1522 1512 1507 1493 1489 1488 1490 1492 1493 1495 1497 1500 1502 1504 1506 1508 1510 1512 1513 1515 1517 1519 1521 1523 1526 1528 1531 1533 1535 1537 1539 1541
1469 1484 1478 1469 1468 1471 1471 1477 1490 1507 1514 1528 1531 1518 1487 1486 1485 1486 1488 1490 1492 1495 1497 1499 1502 1504 1506 1508 1510 1511 1512 1514 1516 1518 1520 1521 1524 1527 1529 1531 1533 1535 1537 1539
1462 1478 1487 1475 1460 1456 1462 1470 1485 1504 1509 1514 1521 1513 1478 1479 1481 1483 1486 1489 1492 1494 1496 1499 1501 1504 1506 1507 1509 1511 1512 1514 1515 1517 1519 1521 1523 1525 1527 1529 1531 1533 1535 1537
1458 1476 1491 1488 1477 1463 1463 1465 1473 1485 1499 1510 1517 1506 1479 1479 1481 1483 1484 1487 1491 1493 1496 1499 1502 1503 1505 1507 1509 1511 1512 1514 1515 1517 1519 1521 1522 1524 1526 1527 1529 1531 1533 1534
1448 1469 1481 1489 1482 1468 1467 1464 1466 1481 1499 1502 1499 1494 1484 1481 1481 1482 1483 1485 1489 1492 1495 1498 1501 1503 1505 1507 1509 1511 1512 1514 1515 1517 1518 1520 1521 1523 1525 1526 1528 1529 1530 1532
1448 1464 1464 1465 1460 1459 1461 1462 1463 1471 1478 1488 1486 1484 1479 1476 1477 1479 1481 1484 1487 1491 1493 1496 1498 1501 1504 1506 1508 1510 1512 1513 1515 1516 1518 1519 1521 1522 1524 1525 1526 1528 1529 1530
1452 1461 1462 1463 1457 1457 1461 1459 1459 1462 1465 1471 1474 1479 1471 1473 1475 1478 1481 1483 1486 1490 1492 1495 1498 1500 1502 1505 1507 1509 1511 1513 1514 1516 1517 1519 1520 1521 1523 1524 1525 1526 1528 1529
1458 1463 1472 1475 1463 1462 1473 1463 1461 1463 1462 1465 1474 1472 1469 1472 1473 1475 1479 1481 1485 1488 1491 1495 1497 1499 1501 1504 1506 1507 1510 1512 1514 1515 1517 1518 1519 1521 1522 1523 1525 1525 1526 1528
1458 1466 1475 1478 1473 1485 1474 1456 1455 1459 1461 1460 1461 1463 1466 1468 1472 1475 1477 1479 1484 1487 1490 1494 1497 1499 1501 1503 1505 1507 1509 1511 1513 1514 1516 1517 1519 1520 1521 1522 1523 1524 1526 1527
1452 1462 1475 1484 1485 1479 1465 1457 1456 1461 1466 1460 1460 1463 1467 1470 1474 1478 1480 1480 1483 1486 1489 1491 1494 1497 1500 1502 1504 1505 1508 1510 1512 1513 1515 1516 1518 1519 1520 1521 1522 1524 1525 1526
1452 1457 1471 1480 1484 1487 1472 1456 1453 1457 1472 1463 1460 1463 1466 1469 1479 1481 1480 1482 1484 1486 1488 1491 1494 1497 1499 1501 1503 1505 1507 1508 1510 1512 1514 1516 1517 1518 1519 1520 1522 1523 1524 1525
1464 1466 1472 1478 1482 1477 1462 1455 1453 1472 1475 1464 1462 1463 1465 1468 1472 1477 1479 1482 1484 1486 1489 1491 1494 1496 1498 1501 1503 1504 1506 1508 1509 1511 1513 1515 1516 1517 1519 1520 1521 1522 1524 1525
1469 1473 1476 1479 1483 1481 1460 1457 1462 1465 1461 1462 1463 1465 1467 1470 1473 1476 1479 1482 1484 1485 1488 1490 1492 1495 1497 1500 1502 1503 1505 1507 1509 1511 1512 1514 1515 1516 1518 1519 1520 1522 1523 1524
1467 1469 1471 1473 1475 1465 1460 1459 1459 1459 1460 1462 1464 1467 1469 1472 1475 1478 1480 1482 1485 1486 1488 1490 1492 1495 1497 1499 1502 1503 1505 1507 1509 1510 1512 1513 1514 1515 1517 1519 1520 1521 1523 1524
1465 1463 1466 1469 1466 1463 1462 1461 1461 1460 1460 1462 1464 1467 1470 1473 1477 1480 1482 1484 1485 1486 1489 1491 1492 1494 1496 1498 1501 1502 1504 1506 1507 1509 1511 1513 1514 1515 1517 1519 1520 1522 1523 1524
1467 1466 1468 1469 1467 1465 1464 1464 1464 1463 1464 1466 1467 1468 1471 1474 1478 1481 1483 1485 1486 1487 1490 1491 1493 1494 1496 1498 1500 1502 1503 1505 1507 1508 1510 1512 1513 1515 1517 1518 1520 1522 1524 1526
1467 1467 1469 1470 1467 1467 1468 1467 1467 1466 1466 1467 1469 1471 1473 1474 1477 1480 1483 1485 1486 1487 1489 1491 1492 1493 1495 1497 1499 1501 1503 1505 1506 1508 1509 1511 1513 1515 1517 1518 1521 1523 1526 1528